Regional Weather Roundup
Issued by NWS

Home | Current Version | Previous Version | Graphics & Text | Print | Product List | Glossary On
Versions: 1 2 3 4 5 6 7 8 9 10 11 12 13 14 15 16 17 18 19 20 21 22 23 24 25 26 27 28 29 30 31 32 33 34 35 36 37 38 39 40 41 42 43 44 45 46 47 48 49 50
000
ASUS43 KLMK 220710
RWRKY
KENTUCKY REGIONAL WEATHER ROUNDUP
NATIONAL WEATHER SERVICE LOUISVILLE KY
300 AM EDT SAT JUL 22 2017

NOTE "FAIR" INDICATES FEW OR NO CLOUDS BELOW 12,000 FEET
WITH NO SIGNIFICANT WEATHER AND/OR OBSTRUCTIONS TO VISIBILITY.

KYZ001>023-026-027-061>063-070>075-220800-
WESTERN AND SOUTH CENTRAL KENTUCKY

CITY           SKY/WX    TMP DP  RH WIND       PRES   REMARKS
PADUCAH        CLEAR     82  74  76 SW7       29.90F
HENDERSON      CLEAR     80  76  87 SW7       29.89F
OWENSBORO      CLEAR     80  77  90 S6        29.90F
HOPKINSVILLE   CLEAR     79  76  91 SW5       29.94F
BOWLING GREEN  CLEAR     82  77  84 S3        29.95F HX  90
GLASGOW        CLEAR     77  76  96 CALM      29.96F
$$

KYZ024-025-028>034-038-045-046-053-220800-
NORTH CENTRAL KENTUCKY

CITY           SKY/WX    TMP DP  RH WIND       PRES   REMARKS
LOUISVILLE/SDF PTCLDY    85  75  72 SW10      29.90F HX  93
LOUISVILLE/LOU CLEAR     83  77  82 S5        29.91F HX  92
FORT KNOX      CLEAR     78  75  90 S6        29.91F
$$

KYZ035>037-039>044-047>052-055>060-089>105-220800-
NORTHEAST KENTUCKY

CITY           SKY/WX    TMP DP  RH WIND       PRES   REMARKS
LEXINGTON      CLEAR     79  72  79 S8        29.95F
COVINGTON      MOCLDY    75  74  96 S7        29.92F
FRANKFORT      CLEAR     80  72  76 SW7       29.92F
$$

KYZ054-064>069-076>088-106>120-220800-
SOUTHEAST KENTUCKY

CITY           SKY/WX    TMP DP  RH WIND       PRES   REMARKS
JACKSON        CLEAR     76  72  87 CALM      30.00F
LONDON         CLEAR     75  71  87 CALM      30.00F
SOMERSET       CLEAR     72  72 100 CALM      30.00F
MIDDLESBORO    CLEAR     72  72  99 CALM      30.03F
MONTICELLO     SUNNY     71  71 100 CALM      30.00F FOG
$$





USA.gov is the U.S. government's official web portal to all federal, state and local government web resources and services.